EFW22D EGKK-LEZL

Flight info

Callsign EFW22D
Flight time N/A
Altitude 35000
Route IMVUR1Z IMVUR N63 SAM M195 MARUK N621 LELNA DCT NOVAN DCT DELOG/N0458F370 N864 MONTO N857 HIJ HIJ4E
Aircraft A321/M-SDE3FGIJ1KRWXY/SB1

Departure

Time 2026-05-04 12:10
Airport London Gatwick Airport (EGKK)

Arrival

Time N/A
Airport Seville Airport (LEZL)
Time Latitude Longitude Altitude Speed Heading
2026-05-04 11:24 51.15496 -0.16903 204 ft 0 kts 348°
2026-05-04 11:51 51.15479 -0.16897 214 ft 4 kts 348°
2026-05-04 11:51 51.15457 -0.16890 213 ft 4 kts 341°
2026-05-04 11:52 51.15443 -0.16870 211 ft 4 kts 266°
2026-05-04 11:52 51.15448 -0.16831 213 ft 3 kts 257°
2026-05-04 11:52 51.15449 -0.16823 212 ft 0 kts 257°
2026-05-04 11:55 51.15449 -0.16824 204 ft 0 kts 257°
2026-05-04 11:55 51.15447 -0.16838 209 ft 2 kts 257°
2026-05-04 11:56 51.15441 -0.16882 204 ft 7 kts 257°
2026-05-04 11:56 51.15428 -0.16972 209 ft 9 kts 257°
2026-05-04 11:56 51.15413 -0.17079 208 ft 10 kts 257°
2026-05-04 11:56 51.15387 -0.17194 214 ft 12 kts 251°
2026-05-04 11:57 51.15371 -0.17275 211 ft 10 kts 253°
2026-05-04 11:57 51.15312 -0.17392 213 ft 11 kts 235°
2026-05-04 11:57 51.15291 -0.17517 204 ft 12 kts 257°
2026-05-04 11:57 51.15271 -0.17658 212 ft 14 kts 257°
2026-05-04 11:58 51.15251 -0.17810 204 ft 15 kts 258°
2026-05-04 11:58 51.15228 -0.17975 213 ft 16 kts 257°
2026-05-04 11:58 51.15212 -0.18093 209 ft 17 kts 257°
2026-05-04 11:58 51.15188 -0.18277 213 ft 17 kts 264°
2026-05-04 11:59 51.15166 -0.18470 210 ft 18 kts 256°
2026-05-04 11:59 51.15139 -0.18663 209 ft 17 kts 258°
2026-05-04 11:59 51.15114 -0.18848 215 ft 15 kts 257°
2026-05-04 11:59 51.15090 -0.19018 206 ft 16 kts 257°
2026-05-04 12:00 51.15068 -0.19178 204 ft 10 kts 258°
2026-05-04 12:00 51.15029 -0.19260 212 ft 9 kts 197°
2026-05-04 12:00 51.14976 -0.19283 215 ft 9 kts 217°
2026-05-04 12:00 51.14948 -0.19389 208 ft 12 kts 256°
2026-05-04 12:01 51.14924 -0.19557 211 ft 17 kts 258°
2026-05-04 12:01 51.14898 -0.19750 212 ft 18 kts 257°
2026-05-04 12:02 51.14718 -0.21052 208 ft 16 kts 257°
2026-05-04 12:03 51.14711 -0.21106 209 ft 0 kts 258°
2026-05-04 12:05 51.14710 -0.21109 208 ft 1 kts 258°
2026-05-04 12:05 51.14708 -0.21130 209 ft 3 kts 257°
2026-05-04 12:05 51.14703 -0.21167 204 ft 4 kts 257°
2026-05-04 12:05 51.14694 -0.21228 210 ft 7 kts 257°
2026-05-04 12:06 51.14681 -0.21298 210 ft 5 kts 241°
2026-05-04 12:06 51.14677 -0.21304 208 ft 0 kts 226°
2026-05-04 12:06 51.14676 -0.21305 208 ft 1 kts 226°
2026-05-04 12:06 51.14664 -0.21319 215 ft 3 kts 212°
2026-05-04 12:07 51.14636 -0.21330 208 ft 5 kts 185°
2026-05-04 12:07 51.14621 -0.21325 204 ft 0 kts 166°
2026-05-04 12:08 51.14612 -0.21322 204 ft 3 kts 166°
2026-05-04 12:08 51.14571 -0.21302 205 ft 8 kts 156°
2026-05-04 12:08 51.14526 -0.21231 214 ft 11 kts 120°
2026-05-04 12:09 51.14522 -0.21152 202 ft 1 kts 78°
2026-05-04 12:09 51.14522 -0.21151 202 ft 0 kts 78°
2026-05-04 12:09 51.14528 -0.21107 211 ft 22 kts 77°
2026-05-04 12:10 51.14619 -0.20449 207 ft 97 kts 78°
2026-05-04 12:10 51.14811 -0.19056 210 ft 158 kts 77°
2026-05-04 12:10 51.15049 -0.17289 746 ft 167 kts 76°
2026-05-04 12:10 51.15300 -0.15465 1553 ft 167 kts 78°
2026-05-04 12:11 51.15559 -0.13593 1976 ft 183 kts 77°
2026-05-04 12:11 51.15843 -0.11535 2256 ft 203 kts 77°
2026-05-04 12:11 51.16161 -0.09220 2538 ft 223 kts 78°
2026-05-04 12:11 51.16399 -0.07574 2970 ft 226 kts 73°